Vorticity
8 8 7 6 6 6 5 5 5 5 5 5 5 5 6 6 6 6 6 6 6 6 6 6 6 6 6 6 6 6 6 6 7 7 7 7 7 7 7 7 7 7 8 8 8 8 8 8 8 8 8 8 7 7 7 7 7 6 6 6 6 6 6 6 6 6 6 6 6 6 6 5 5 5 5 5 5 5 5 5 5 5 5 5 5 5 5 5 5 5 6 6 6 6 6 6 6 6 6 6 6 6 6
9 8 8 7 6 6 6 5 5 5 5 5 5 5 5 6 6 6 6 6 6 6 6 6 6 6 6 6 7 7 7 7 7 7 7 7 7 7 7 7 7 7 7 7 7 8 8 7 7 7 7 7 7 7 7 7 6 6 6 6 6 6 6 6 6 6 6 5 5 5 5 5 5 5 5 5 5 5 5 5 5 5 5 5 5 5 6 6 6 6 6 6 7 7 7 7 7 7 8 8 8 8 7
10 9 8 8 7 6 6 6 5 5 5 5 5 5 5 5 6 6 6 6 6 6 6 6 7 7 7 7 7 7 7 7 7 7 7 7 7 7 6 6 7 7 7 7 7 7 7 7 7 7 7 7 7 7 7 6 6 6 6 6 6 5 5 5 5 5 5 5 5 5 5 5 5 5 5 5 5 5 6 6 6 6 6 6 6 6 6 6 6 6 6 7 7 7 7 7 8 8 8 8 8 8 8
10 10 9 8 8 7 6 6 6 5 5 5 5 5 5 5 6 6 6 6 6 6 6 6 7 7 7 7 7 7 7 7 7 7 7 7 7 6 6 6 6 6 6 7 7 7 7 7 7 7 7 7 7 7 7 6 6 6 6 6 5 5 5 5 5 5 5 5 5 5 5 5 5 5 5 6 6 6 6 6 6 6 6 6 6 6 6 6 6 6 6 6 6 6 6 6 6 6 6 6 6 6 6
9 10 10 9 8 8 7 6 6 6 5 5 5 5 5 5 6 6 6 6 6 6 6 6 7 7 7 7 7 7 7 7 7 7 7 7 6 6 6 6 6 6 6 6 6 6 6 7 7 7 7 7 7 7 7 7 6 6 6 6 6 6 5 5 5 5 5 5 5 5 5 5 5 5 5 6 6 6 6 6 6 6 6 6 6 6 6 6 5 5 5 5 5 5 5 5 5 5 4 4 5 5 5
8 9 10 10 9 9 8 7 6 6 6 5 5 5 5 5 6 6 6 6 6 6 6 6 6 7 7 7 7 7 7 7 7 7 7 7 6 6 6 6 6 6 6 6 6 6 6 6 6 6 6 6 6 6 7 6 6 6 6 6 6 6 5 5 5 5 5 5 5 5 5 5 5 5 5 6 6 6 6 6 6 6 6 6 5 5 5 5 5 4 4 4 4 4 4 4 4 4 4 4 4 4 4
7 8 9 10 10 10 9 8 7 7 6 6 5 5 5 5 5 6 6 6 6 6 6 6 6 6 7 7 7 7 7 7 7 7 7 6 6 6 6 6 6 6 5 5 5 5 5 5 6 6 6 6 6 6 6 6 6 6 6 6 6 5 5 5 5 5 5 5 5 5 5 5 5 5 5 5 5 5 5 5 5 5 5 5 5 5 4 4 4 4 4 4 4 4 4 4 4 4 4 4 4 5 5
5 6 8 9 10 10 10 9 8 8 7 6 6 6 6 5 6 6 6 6 6 6 6 7 7 6 6 6 6 6 6 7 7 6 6 6 6 6 6 6 6 6 5 5 5 5 5 5 5 5 5 5 5 5 5 5 6 6 5 5 5 5 5 5 5 5 5 5 5 5 5 5 5 5 4 4 4 4 4 4 4 5 5 5 5 5 4 4 4 4 4 4 4 4 5 5 5 5 5 5 5 5 4
4 5 6 7 8 10 10 10 10 9 8 7 7 6 6 6 6 6 6 6 6 6 6 7 7 7 6 6 6 6 6 6 6 6 6 6 6 6 6 6 6 6 5 5 5 5 5 5 5 5 5 5 5 5 4 4 5 5 5 5 5 5 5 5 5 5 5 5 5 4 4 4 4 4 4 4 4 4 4 4 4 4 5 5 5 5 5 5 5 5 5 5 5 5 5 5 5 5 5 4 4 4 4
4 4 5 6 7 8 9 10 10 10 9 9 8 7 7 6 6 6 6 6 6 6 6 6 6 6 6 6 6 6 6 6 6 6 6 6 6 6 5 5 5 5 5 5 5 5 5 5 5 5 5 5 5 4 4 4 4 4 4 4 5 5 5 5 4 4 4 4 4 4 4 4 4 4 4 4 4 4 4 4 4 5 5 5 5 6 6 6 6 6 6 5 5 5 5 4 4 4 4 4 3 3 3
3 4 4 5 6 7 8 9 9 10 10 10 9 8 8 7 7 6 6 6 6 6 6 6 6 6 6 6 6 6 6 6 6 6 6 6 6 5 5 5 5 5 5 5 5 5 5 5 5 5 5 5 5 4 4 4 4 4 4 4 4 4 4 4 4 4 4 4 4 4 4 4 4 4 4 4 5 5 5 5 5 5 5 5 5 5 5 5 5 5 5 5 5 4 4 4 4 3 3 3 3 2 2
3 3 3 4 4 5 6 7 8 9 10 10 10 9 8 8 7 7 7 7 7 7 7 7 6 6 6 6 6 6 6 6 6 6 6 6 6 6 6 5 5 5 6 6 5 5 5 5 5 5 5 5 5 4 4 4 4 4 4 4 4 4 4 4 4 4 4 4 4 4 4 4 5 5 5 5 5 5 5 5 5 5 5 5 5 5 5 4 4 4 4 4 4 4 3 3 3 3 2 2 2 2 2
3 3 3 3 4 4 5 6 7 8 9 9 10 10 9 9 8 8 7 7 7 7 7 7 7 6 6 6 6 6 6 6 6 6 6 6 6 6 6 6 6 6 6 6 6 5 5 5 5 5 5 4 4 4 4 4 4 4 4 4 4 4 4 4 4 4 5 5 5 5 5 5 5 5 5 5 5 5 5 5 5 5 5 4 4 4 4 4 4 3 3 3 3 3 3 3 2 2 2 2 2 2 2
4 3 3 3 3 4 4 5 6 7 7 8 9 9 9 9 9 8 8 8 7 7 7 7 7 7 7 6 6 6 6 6 6 6 6 6 6 6 6 6 6 6 6 6 6 6 5 5 5 5 4 4 4 4 4 4 4 4 4 4 5 5 5 5 5 5 5 5 5 5 5 5 5 5 5 5 5 5 5 5 5 4 4 4 4 4 3 3 3 3 3 3 2 2 2 2 2 2 2 3 3 3 3
4 3 3 2 3 3 4 4 5 6 6 7 8 8 9 9 9 9 9 8 8 8 8 7 7 7 7 7 6 6 6 6 6 6 6 6 6 6 6 6 6 6 6 6 6 6 5 5 5 5 4 4 4 4 4 4 4 4 4 5 5 5 5 5 5 5 5 5 5 5 5 5 5 5 5 5 5 5 5 4 4 4 4 4 4 3 3 3 3 2 2 2 2 2 2 2 2 3 3 3 3 3 3
4 3 3 2 2 3 3 4 4 5 6 6 7 7 8 9 9 9 9 9 9 9 8 8 8 8 7 7 7 6 6 6 6 6 6 6 7 7 7 7 7 7 6 6 6 6 5 5 5 5 4 4 4 4 4 4 5 5 5 5 5 5 5 5 5 5 5 5 5 5 5 5 5 5 5 5 5 4 4 4 4 4 4 3 3 3 3 3 3 2 2 2 2 2 2 2 2 3 3 3 3 3 3
4 3 3 3 3 3 3 3 4 4 5 5 6 6 7 8 8 9 10 10 10 10 9 9 9 8 8 8 7 7 7 6 6 6 6 6 7 7 7 7 7 7 7 6 6 6 6 5 5 4 4 4 4 4 4 5 5 5 5 5 5 5 5 5 5 5 5 5 5 5 5 5 5 5 5 5 4 4 4 4 4 4 4 3 3 3 3 3 3 3 3 3 3 2 2 2 3 3 3 3 3 3 3
4 3 2 3 3 3 3 3 3 4 4 4 5 5 6 6 7 8 9 9 10 10 10 10 10 9 9 9 8 8 8 7 7 7 6 6 6 7 7 7 7 7 7 7 6 6 6 5 5 4 4 4 4 4 4 4 5 5 5 5 5 5 5 5 5 5 5 5 5 5 5 5 5 5 5 4 4 4 4 4 4 4 3 3 3 3 3 3 3 3 3 3 3 3 3 3 3 3 3 3 3 3 3
5 4 3 3 3 3 3 3 3 3 4 4 4 4 5 5 6 6 7 8 9 10 10 10 10 10 10 10 9 9 9 8 8 8 7 7 6 6 7 7 7 7 7 7 6 6 6 5 5 4 4 4 4 4 4 4 5 5 5 5 5 5 5 5 5 5 5 5 4 4 4 4 4 4 4 4 4 4 4 4 4 3 3 3 3 3 3 3 3 3 3 3 3 3 3 3 3 3 3 3 3 3 3
8 7 6 5 4 3 3 3 3 3 3 4 4 4 4 4 5 5 6 6 7 8 9 9 10 10 10 10 10 10 10 9 9 9 8 8 8 7 7 7 7 7 7 7 7 6 6 5 5 4 4 4 4 4 4 4 4 5 5 5 5 5 5 5 5 4 4 4 4 4 4 4 4 4 4 4 4 4 4 4 4 3 3 3 3 3 3 3 3 4 4 4 4 4 4 3 3 3 3 3 3 3 3
9 9 10 9 7 6 5 4 4 4 4 4 4 4 4 4 5 5 5 5 6 6 7 8 8 9 9 10 10 10 10 10 10 10 10 9 9 9 8 7 7 6 7 7 7 6 6 6 5 5 4 4 4 4 4 4 4 5 5 5 5 5 5 5 5 4 4 4 4 4 4 4 4 4 4 4 4 4 4 4 4 4 4 3 3 3 4 4 4 4 4 4 4 4 4 4 4 4 4 3 3 3 3
7 8 9 10 10 9 8 7 6 4 4 4 4 4 4 4 5 5 5 5 5 5 5 6 6 7 7 8 9 9 10 10 10 10 10 10 10 10 10 9 8 8 7 6 6 6 6 6 6 5 5 4 4 4 4 4 4 4 5 5 5 5 5 5 5 5 4 4 4 4 4 4 4 4 4 4 4 4 4 4 4 4 4 4 4 4 4 4 4 4 4 4 4 4 4 4 4 4 4 4 4 4 4
6 6 7 8 9 10 10 10 9 7 7 6 5 4 4 4 4 4 5 6 6 6 6 6 5 6 6 6 7 8 8 9 9 10 10 10 10 10 11 11 10 10 9 8 7 7 6 6 6 6 5 5 4 4 4 4 4 4 4 5 5 5 5 5 5 5 4 4 4 4 4 4 4 4 4 4 4 4 4 4 4 4 4 4 4 4 4 4 4 4 4 4 4 4 4 4 4 4 4 4 4 4 4
6 6 6 6 6 8 9 10 10 10 11 10 8 7 7 6 5 4 4 5 6 7 7 7 7 7 6 6 6 6 7 8 8 8 9 10 10 11 11 11 12 12 11 11 10 10 9 8 8 7 6 6 5 5 4 4 4 4 4 4 4 4 5 5 5 5 4 4 4 4 4 4 4 4 4 4 4 4 4 4 4 4 4 4 4 4 4 4 4 4 4 4 4 4 4 4 4 4 4 4 4 4 4
6 6 5 5 5 6 6 7 8 9 10 10 10 10 10 10 9 8 6 6 6 6 7 7 8 8 7 7 7 7 7 7 8 8 8 8 9 10 10 11 12 12 12 12 12 12 11 11 10 10 9 8 7 7 6 5 5 5 4 4 4 4 4 4 4 4 4 4 4 4 4 4 4 4 4 4 4 4 4 4 4 4 4 4 4 4 4 4 4 4 4 4 4 4 4 4 4 4 4 4 4 4 4
5 5 5 5 5 5 5 5 5 6 6 6 7 7 9 9 9 9 8 8 7 7 6 7 7 7 7 7 7 7 6 7 7 8 8 8 8 8 9 10 10 11 12 12 12 12 12 12 12 12 11 11 10 10 9 8 7 6 6 5 5 5 4 4 4 4 4 4 4 4 4 4 4 4 4 4 4 4 4 4 4 4 4 4 4 4 4 4 4 4 4 4 4 4 4 4 4 4 4 4 4 4 4
5 5 4 5 5 5 5 4 4 4 4 5 4 5 5 6 6 6 7 7 7 7 7 7 7 7 6 6 6 6 6 6 6 6 7 7 7 7 8 8 8 9 9 10 11 11 11 11 11 11 11 11 12 11 11 11 10 9 8 7 7 6 6 6 5 5 5 4 4 4 4 4 4 4 4 4 4 4 4 4 4 4 4 4 4 4 4 4 4 4 4 4 4 4 4 4 4 4 4 4 4 4 4
6 5 5 6 6 5 5 4 4 4 4 4 4 4 3 4 4 4 5 5 5 6 6 6 6 6 6 6 6 6 6 6 5 6 6 6 6 6 6 7 7 7 7 8 9 9 10 10 10 10 10 10 10 10 11 11 11 11 11 10 10 9 8 8 7 7 6 6 5 5 5 4 4 4 4 4 4 4 4 4 4 4 3 3 3 3 3 3 4 4 4 4 4 4 4 4 4 4 4 4 4 4 4
5 5 5 6 5 5 4 4 4 4 4 4 4 3 2 3 4 4 3 4 4 5 5 5 5 5 5 5 5 6 5 6 6 6 6 5 5 5 5 6 6 6 6 6 6 7 8 8 9 9 10 9 9 8 8 9 9 10 10 10 10 10 10 10 9 9 9 8 7 6 6 5 5 5 4 4 4 4 4 4 4 4 3 3 3 3 3 3 3 3 3 3 4 4 4 4 4 4 4 4 4 4 4
4 4 5 5 5 4 4 4 4 4 4 3 3 3 2 2 3 4 4 4 4 4 4 4 4 4 4 4 4 4 4 6 6 6 5 5 5 5 5 5 5 5 5 5 5 5 6 6 7 7 8 8 8 8 8 7 7 7 7 8 8 8 8 8 8 9 9 9 9 8 7 6 5 5 4 4 4 4 4 4 4 4 3 3 3 3 3 3 3 3 3 3 3 3 3 3 4 4 4 4 4 4 4
4 4 4 5 4 4 4 4 4 4 4 4 3 3 3 3 3 3 3 4 4 4 4 3 3 3 3 4 4 4 5 5 5 5 5 5 5 5 4 5 5 5 5 5 5 5 4 5 5 6 6 6 7 7 7 7 7 6 6 6 6 6 6 6 6 6 6 7 8 8 8 7 6 6 5 4 4 4 4 4 4 4 4 3 3 3 3 3 3 3 3 3 3 3 3 3 3 3 3 4 4 4 4
5 5 4 4 4 4 4 4 4 3 3 4 4 3 3 3 3 3 3 3 3 3 3 3 3 2 3 3 3 4 4 4 4 4 4 4 4 4 4 4 5 5 5 6 5 5 4 4 5 5 5 5 5 5 6 6 6 6 6 6 5 5 5 4 4 4 4 4 5 6 7 7 7 7 6 5 4 4 4 4 4 4 4 4 4 4 3 3 3 3 3 3 3 3 3 3 3 3 3 3 3 3 4
5 5 5 4 4 5 4 4 4 4 3 4 4 4 3 3 4 4 4 3 3 3 3 3 2 2 2 3 3 3 3 3 3 4 4 3 3 4 4 4 4 4 5 5 5 5 5 5 5 4 4 4 4 4 4 5 5 6 6 6 6 6 5 5 5 4 4 4 4 4 5 6 7 7 7 6 6 5 4 4 4 4 4 5 5 4 4 4 3 3 3 3 3 3 3 3 3 3 3 3 3 3 3
5 5 5 5 5 5 5 5 5 5 4 4 5 5 5 4 5 5 5 5 4 4 4 3 3 3 3 3 3 3 2 2 2 3 4 3 3 3 4 4 4 4 4 4 4 4 4 5 5 5 5 5 4 4 4 4 4 4 5 5 6 6 6 6 6 5 5 5 4 4 5 5 6 7 7 7 7 7 6 5 5 4 4 5 5 5 5 5 4 4 4 4 3 3 3 3 3 3 3 3 3 3 3
5 5 5 5 6 6 6 6 6 6 6 6 7 7 7 7 7 7 7 7 7 7 7 6 5 5 4 4 4 4 4 3 3 3 3 3 3 3 3 3 4 4 4 4 4 4 4 4 5 5 5 5 5 5 5 5 4 4 4 4 5 5 5 6 6 6 6 6 6 6 5 6 6 6 7 7 7 7 7 7 6 6 5 5 5 5 5 5 5 5 5 5 5 4 4 4 4 3 3 3 3 3 3
6 6 6 7 7 7 7 8 8 8 9 10 10 10 10 10 10 11 11 11 11 11 11 10 9 8 7 7 6 6 5 5 4 4 3 3 3 3 3 3 3 3 4 4 4 4 4 4 5 5 5 5 6 6 6 6 6 6 5 5 5 5 5 5 6 6 6 6 6 6 6 6 6 6 6 7 7 7 7 7 7 7 7 6 6 5 5 5 5 6 6 6 6 5 5 5 5 4 4 4 4 4 4
9 9 10 10 9 10 10 10 10 11 11 12 12 13 13 13 13 14 14 14 14 14 14 14 14 13 12 11 10 9 8 8 8 7 6 5 5 4 4 3 3 3 3 3 4 4 4 4 5 5 5 5 6 6 6 6 6 6 6 6 6 6 6 6 6 6 6 6 6 6 6 6 6 6 6 6 6 6 7 7 7 7 7 7 7 6 6 6 6 6 6 6 6 6 6 6 6 5 5 5 5 4 4
12 12 13 13 13 13 13 13 13 13 13 13 13 13 14 14 14 15 15 15 15 16 16 16 16 16 16 16 15 14 13 12 12 11 10 9 8 7 6 6 5 4 4 4 4 4 4 4 4 4 4 5 5 5 5 6 6 6 6 6 6 7 7 7 7 6 6 6 6 7 7 6 6 6 6 6 6 6 6 6 7 7 7 7 7 7 7 7 6 6 6 6 6 6 5 6 6 6 6 5 5 5 5
13 13 13 14 14 14 13 13 13 13 13 13 13 13 13 13 13 13 14 14 14 14 15 15 16 17 17 18 17 17 17 16 15 15 14 13 13 12 11 10 9 8 7 6 5 5 4 4 4 4 4 4 4 4 4 4 4 5 5 5 6 6 6 6 6 6 6 6 7 7 7 7 7 7 7 6 6 6 6 6 6 6 7 7 7 7 7 7 7 7 6 6 6 6 6 6 5 5 5 5 5 5 5
12 12 12 12 12 12 11 11 11 11 11 12 12 12 11 11 11 11 11 11 11 12 12 12 13 14 15 15 16 16 17 17 16 16 16 16 16 15 15 14 13 13 12 11 10 8 8 7 6 5 5 4 4 4 3 3 3 3 3 4 4 4 4 4 4 5 5 5 5 6 6 6 6 6 6 6 6 6 6 6 6 6 6 6 7 7 7 7 7 7 7 6 6 6 6 6 6 6 6 5 5 5 5
10 10 10 10 9 9 9 9 8 8 8 8 8 8 8 8 8 8 7 7 8 8 8 8 8 9 10 11 11 12 13 14 14 14 14 15 15 15 16 16 15 15 15 14 14 13 12 11 10 9 8 8 7 6 6 5 5 4 4 4 4 4 4 4 4 4 4 4 4 4 4 5 5 5 6 6 6 6 6 6 6 7 7 7 7 6 6 6 6 6 6 6 6 6 6 6 6 6 6 6 6 6 6
8 8 8 7 7 7 6 6 6 5 5 5 4 4 4 5 5 4 4 4 5 5 5 6 6 6 5 6 7 7 8 9 10 10 10 11 12 12 13 13 14 14 14 15 15 15 14 14 14 13 13 13 12 12 11 10 10 9 9 8 8 7 7 7 7 7 7 7 7 7 6 6 6 6 6 6 6 6 6 6 7 7 7 7 7 7 7 7 7 6 6 6 6 6 6 6 6 6 6 6 6 6 6
7 6 6 6 6 5 5 5 5 4 4 4 4 4 4 4 4 4 4 4 3 3 4 4 4 4 4 4 4 4 5 5 6 7 7 7 7 8 8 9 10 11 11 12 12 13 13 13 14 14 14 14 14 14 14 14 14 14 14 13 13 13 13 13 13 13 13 13 12 12 12 12 11 11 10 10 10 9 9 9 8 8 8 8 8 8 8 7 7 7 7 7 7 7 6 6 6 6 6 6 6 6 6
6 5 5 5 5 5 5 5 5 5 5 5 5 5 5 5 5 5 5 5 5 4 4 4 4 4 4 4 4 4 4 4 4 4 4 4 4 5 5 6 6 7 7 8 8 9 9 10 10 10 11 11 12 12 12 13 13 13 13 14 14 15 15 15 15 15 15 15 15 15 15 15 15 15 15 14 14 14 13 13 13 12 12 11 11 10 10 10 9 9 9 8 8 8 8 7 7 7 6 6 6 6 6
5 5 5 5 5 5 6 6 6 6 6 6 7 7 7 6 6 7 6 7 7 6 5 5 5 5 5 5 4 4 4 4 3 3 3 3 3 3 3 4 4 4 4 4 5 5 5 6 6 6 6 7 7 7 7 7 7 8 8 9 10 10 10 11 11 11 11 12 12 12 13 13 13 14 14 14 15 15 15 15 15 15 15 15 14 14 13 13 13 12 12 11 11 11 10 10 9 9 8 8 8 7 7
5 5 5 6 6 6 6 6 6 6 7 7 7 7 7 7 7 7 7 7 8 8 7 6 6 6 7 6 6 6 5 5 4 4 4 3 3 3 3 3 3 3 3 3 3 3 3 3 4 4 4 4 4 4 4 4 4 4 4 5 5 5 5 5 6 6 6 6 6 7 7 8 8 9 9 10 10 11 11 12 13 13 14 14 15 15 15 15 15 15 14 14 14 14 13 13 13 12 12 12 11 11 10
4 4 5 5 5 6 6 6 6 6 6 6 6 6 7 7 7 7 7 7 8 8 8 7 7 7 7 7 7 7 6 6 6 5 5 5 4 4 4 4 4 4 4 3 3 3 3 3 3 3 3 3 3 3 3 2 2 2 3 3 2 2 2 2 3 3 3 3 3 4 4 4 4 4 5 5 5 6 6 6 7 7 8 9 10 11 12 12 13 13 14 14 14 15 15 15 15 14 14 14 14 14 14
4 4 4 4 4 4 4 4 4 5 5 5 6 6 6 7 7 7 7 7 7 8 8 8 7 7 7 8 8 8 8 8 7 7 6 6 6 7 6 5 5 5 6 5 5 4 4 4 3 3 3 3 3 3 3 2 3 3 3 2 2 2 2 2 2 2 2 2 2 2 2 2 2 2 3 3 3 3 3 3 3 3 4 4 4 5 6 6 7 8 9 10 10 11 12 13 13 13 14 14 15 15 15
4 4 4 4 4 4 4 4 4 5 5 5 6 6 7 7 7 7 8 8 8 8 8 8 8 8 8 8 8 9 9 9 9 8 8 7 7 8 8 8 7 7 7 7 7 6 6 6 6 6 5 5 5 4 4 4 4 4 4 4 4 4 3 3 3 2 2 2 2 2 2 2 2 2 2 2 3 3 3 3 3 2 2 2 2 2 2 2 3 3 4 4 5 6 6 7 8 9 10 10 11 11 12
5 5 5 5 5 5 5 5 5 5 6 6 6 7 7 7 8 8 8 8 8 8 8 9 9 9 8 8 8 9 9 9 9 8 9 9 9 9 9 9 9 9 9 9 9 9 9 9 9 8 8 8 8 8 7 7 7 7 7 6 6 6 6 6 6 5 5 5 5 4 4 4 4 4 4 4 4 4 4 3 3 3 3 2 2 2 2 2 2 2 2 2 2 2 2 3 3 4 4 5 5 6 6
5 4 4 4 4 4 4 5 5 5 6 6 6 7 7 7 8 8 8 8 8 8 8 9 9 8 8 9 8 8 9 9 8 8 9 10 10 9 9 9 8 8 9 9 9 10 10 10 10 10 10 9 9 9 9 9 9 9 9 9 9 10 10 10 10 10 9 9 9 8 8 7 7 7 7 6 6 6 6 5 5 5 4 4 4 4 3 3 3 2 2 2 2 1 1 1 1 1 2 2 2 2 2
4 4 4 4 4 4 4 4 5 6 6 6 7 7 8 8 8 8 8 8 8 8 8 8 8 8 8 8 8 8 8 8 8 8 8 8 8 9 8 8 9 9 9 9 8 8 9 10 10 9 9 9 9 10 10 10 10 10 11 11 11 11 11 12 12 12 11 11 11 10 10 10 10 10 10 10 10 9 9 9 9 8 8 8 7 7 6 6 6 5 4 4 4 3 3 2 2 2 2 2 2 2 1
4 4 4 4 4 4 5 6 6 6 6 7 7 8 8 8 9 9 9 9 8 8 8 8 8 7 7 7 7 8 8 8 8 8 8 7 7 7 8 8 9 10 9 9 8 7 5 6 7 8 8 9 9 10 9 9 9 10 9 10 10 10 10 10 10 10 10 10 10 10 10 10 10 10 11 11 11 11 11 12 12 12 12 12 12 12 11 11 10 10 9 8 8 7 6 6 5 4 4 4 3 3 3
4 4 5 5 5 6 6 7 7 8 8 8 8 8 8 9 9 9 9 9 9 8 8 8 8 8 8 8 8 7 7 7 7 7 8 7 7 7 9 8 8 7 7 8 10 11 10 6 6 7 8 8 8 9 9 8 9 9 8 8 8 8 8 8 8 8 8 8 9 9 9 9 9 9 9 9 10 10 10 11 12 12 13 13 13 14 14 14 14 14 14 13 13 13 12 11 10 9 8 8 7 6 6
6 6 6 6 7 7 8 8 8 9 9 9 9 9 9 10 10 10 9 9 9 9 8 8 8 8 8 8 8 8 7 7 7 8 8 8 8 7 7 8 8 8 9 8 9 10 12 9 7 6 6 7 8 10 10 9 10 10 9 9 9 10 9 9 9 8 8 8 8 8 8 9 9 8 8 8 8 8 8 9 9 10 10 11 12 12 13 13 14 14 15 15 16 16 16 16 16 15 14 14 13 12 11
7 7 8 8 8 9 9 9 10 10 10 10 10 10 10 10 10 9 9 9 9 9 9 9 9 9 9 8 8 9 8 8 8 8 8 9 9 8 7 8 9 10 10 11 10 9 9 9 9 9 7 5 6 8 10 9 10 10 11 11 11 11 11 11 10 10 10 10 9 9 8 9 9 9 9 8 8 8 8 8 8 9 10 10 10 11 12 12 12 13 13 14 14 15 15 16 17 17 17 17 17 16 16
8 9 9 10 10 10 10 10 10 10 10 10 10 9 10 9 9 9 9 9 9 10 10 9 9 9 10 9 8 8 9 9 9 9 10 9 9 9 9 9 9 9 8 8 8 8 8 7 9 11 11 7 5 6 7 8 8 8 9 10 11 11 12 12 11 11 11 11 11 10 10 10 10 11 11 10 10 9 8 8 8 9 10 10 11 11 12 12 12 13 13 13 13 13 14 14 15 16 16 16 16 17 17
9 10 10 10 10 10 10 10 10 9 9 9 9 9 9 9 9 9 9 9 9 9 9 9 9 9 9 10 9 8 8 9 9 9 9 8 8 9 10 10 9 8 9 8 8 8 8 8 9 10 13 10 7 4 4 7 7 7 7 7 8 9 10 10 11 11 11 11 12 12 12 11 11 11 12 12 11 10 10 9 9 9 9 10 10 11 12 12 13 13 13 13 13 14 14 14 14 15 15 15 15 15 16
9 9 9 9 9 9 9 9 9 9 9 9 8 8 9 9 9 9 9 9 9 8 8 9 9 9 8 8 9 9 9 10 9 8 7 8 8 9 9 9 8 8 8 8 8 8 8 9 9 9 10 13 12 8 3 4 5 7 7 6 6 7 7 8 9 10 10 11 11 11 12 11 10 10 11 11 11 11 11 10 9 9 9 9 9 10 10 11 12 13 13 14 14 15 15 15 15 15 15 15 15 15 15
8 8 8 8 8 9 9 9 9 9 9 8 9 9 9 9 9 8 8 9 9 9 9 9 9 9 8 8 9 9 8 9 9 9 8 8 8 8 8 8 8 8 8 7 7 7 7 7 7 7 9 11 13 13 9 4 3 4 7 7 7 7 6 6 7 7 9 9 10 10 11 11 11 10 10 11 11 11 11 11 10 10 10 10 9 9 10 10 11 11 12 13 14 14 15 15 15 15 16 16 16 16 16
8 8 8 8 8 8 8 9 9 9 9 9 9 9 9 9 8 8 8 8 8 9 9 8 8 8 9 9 9 9 8 8 8 9 9 9 8 8 7 8 8 8 8 8 8 7 8 7 7 6 8 8 10 13 14 10 6 4 4 5 6 6 7 7 7 7 8 9 9 10 10 11 11 10 10 10 10 11 11 11 11 11 11 11 11 10 10 10 10 11 11 11 12 13 13 14 14 15 15 16 16 16 16
Height
3177 3177 3177 3177 3177 3177 3177 3177 3177 3177 3177 3177 3177 3177 3177 3177 3177 3178 3178 3178 3178 3178 3178 3178 3178 3178 3178 3178 3179 3179 3179 3179 3179 3179 3179 3179 3179 3179 3179 3179 3179 3179 3180 3180 3180 3180 3180 3180 3180 3180 3180 3180 3180 3180 3180 3180 3180 3180 3181 3181 3181 3181 3181 3181 3181 3181 3182 3182 3182 3182 3182 3182 3182 3182 3182 3183 3183 3183 3183 3183 3183 3183 3183 3183 3183 3183 3183 3183 3183 3183 3183 3183 3183 3184 3184 3184 3184 3184 3184 3184 3184 3184 3184
3176 3176 3176 3176 3176 3176 3176 3176 3176 3176 3176 3177 3177 3177 3177 3177 3177 3177 3177 3177 3178 3178 3178 3178 3178 3178 3178 3178 3178 3178 3178 3178 3179 3179 3179 3179 3179 3179 3179 3179 3179 3179 3179 3179 3180 3180 3180 3180 3180 3180 3180 3180 3180 3180 3180 3180 3180 3180 3180 3181 3181 3181 3181 3181 3181 3181 3181 3182 3182 3182 3182 3182 3182 3182 3182 3182 3182 3183 3183 3183 3183 3183 3183 3183 3183 3183 3183 3183 3183 3183 3183 3183 3183 3183 3183 3183 3183 3183 3184 3184 3184 3184 3184
3176 3176 3176 3176 3176 3176 3176 3176 3176 3176 3176 3176 3176 3176 3176 3177 3177 3177 3177 3177 3177 3177 3177 3177 3178 3178 3178 3178 3178 3178 3178 3178 3178 3178 3178 3178 3178 3179 3179 3179 3179 3179 3179 3179 3179 3179 3180 3180 3180 3180 3180 3180 3180 3180 3180 3180 3180 3180 3180 3180 3181 3181 3181 3181 3181 3181 3181 3181 3181 3182 3182 3182 3182 3182 3182 3182 3182 3182 3182 3182 3182 3182 3182 3182 3182 3182 3182 3182 3182 3182 3182 3183 3183 3183 3183 3183 3183 3183 3183 3183 3183 3183 3183
3176 3176 3176 3176 3176 3175 3175 3175 3175 3175 3176 3176 3176 3176 3176 3176 3176 3176 3176 3177 3177 3177 3177 3177 3177 3177 3177 3178 3178 3178 3178 3178 3178 3178 3178 3178 3178 3178 3178 3178 3179 3179 3179 3179 3179 3179 3179 3180 3180 3180 3180 3180 3180 3180 3180 3180 3180 3180 3180 3180 3180 3181 3181 3181 3181 3181 3181 3181 3181 3181 3181 3181 3182 3182 3182 3182 3182 3182 3182 3182 3182 3182 3182 3182 3182 3182 3182 3182 3182 3182 3182 3182 3182 3182 3182 3182 3182 3183 3183 3183 3183 3183 3183
3176 3175 3175 3175 3175 3175 3175 3175 3175 3175 3175 3175 3175 3175 3175 3175 3176 3176 3176 3176 3176 3176 3176 3177 3177 3177 3177 3177 3177 3177 3177 3177 3178 3178 3178 3178 3178 3178 3178 3178 3178 3178 3179 3179 3179 3179 3179 3179 3179 3179 3180 3180 3180 3180 3180 3180 3180 3180 3180 3180 3180 3180 3181 3181 3181 3181 3181 3181 3181 3181 3181 3181 3181 3181 3181 3182 3182 3182 3182 3182 3182 3182 3182 3182 3182 3182 3182 3182 3182 3182 3182 3182 3182 3182 3182 3182 3182 3182 3182 3182 3182 3182 3182
3175 3175 3175 3175 3175 3175 3175 3175 3175 3175 3175 3175 3175 3175 3175 3175 3175 3175 3175 3175 3176 3176 3176 3176 3176 3176 3176 3176 3177 3177 3177 3177 3177 3177 3177 3177 3178 3178 3178 3178 3178 3178 3178 3178 3178 3179 3179 3179 3179 3179 3179 3180 3180 3180 3180 3180 3180 3180 3180 3180 3180 3180 3180 3180 3180 3181 3181 3181 3181 3181 3181 3181 3181 3181 3181 3181 3181 3181 3181 3182 3182 3182 3182 3182 3182 3182 3182 3182 3182 3182 3182 3182 3182 3182 3182 3182 3182 3182 3182 3182 3182 3182 3182
3175 3175 3175 3175 3175 3175 3174 3174 3174 3174 3174 3174 3174 3174 3175 3175 3175 3175 3175 3175 3175 3175 3175 3175 3176 3176 3176 3176 3176 3176 3176 3177 3177 3177 3177 3177 3177 3177 3177 3178 3178 3178 3178 3178 3178 3178 3178 3178 3179 3179 3179 3179 3179 3180 3180 3180 3180 3180 3180 3180 3180 3180 3180 3180 3180 3180 3180 3180 3180 3180 3181 3181 3181 3181 3181 3181 3181 3181 3181 3181 3181 3181 3181 3181 3181 3181 3181 3181 3181 3181 3181 3181 3181 3181 3181 3181 3181 3181 3181 3181 3181 3181 3181
3175 3174 3174 3174 3174 3174 3174 3174 3174 3174 3174 3174 3174 3174 3174 3174 3174 3174 3174 3175 3175 3175 3175 3175 3175 3175 3175 3175 3175 3176 3176 3176 3176 3176 3176 3177 3177 3177 3177 3177 3177 3177 3177 3178 3178 3178 3178 3178 3178 3178 3179 3179 3179 3179 3179 3179 3180 3180 3180 3180 3180 3180 3180 3180 3180 3180 3180 3180 3180 3180 3180 3180 3180 3180 3180 3180 3180 3180 3180 3181 3181 3181 3181 3181 3181 3181 3181 3181 3181 3181 3181 3181 3181 3181 3181 3181 3181 3181 3181 3181 3181 3181 3181
3174 3174 3174 3174 3174 3174 3173 3173 3173 3173 3173 3173 3173 3173 3174 3174 3174 3174 3174 3174 3174 3174 3174 3175 3175 3175 3175 3175 3175 3175 3175 3175 3176 3176 3176 3176 3176 3176 3176 3177 3177 3177 3177 3177 3177 3177 3178 3178 3178 3178 3178 3178 3179 3179 3179 3179 3179 3179 3179 3179 3180 3180 3180 3180 3180 3180 3180 3180 3180 3180 3180 3180 3180 3180 3180 3180 3180 3180 3180 3180 3180 3180 3180 3180 3180 3180 3180 3180 3180 3180 3180 3180 3180 3180 3180 3180 3180 3180 3180 3180 3180 3180 3180
3174 3173 3173 3173 3173 3173 3173 3173 3173 3173 3173 3173 3173 3173 3173 3173 3173 3173 3173 3173 3174 3174 3174 3174 3174 3174 3174 3175 3175 3175 3175 3175 3175 3175 3175 3175 3176 3176 3176 3176 3176 3176 3176 3177 3177 3177 3177 3177 3177 3177 3178 3178 3178 3178 3178 3178 3179 3179 3179 3179 3179 3179 3179 3179 3179 3179 3179 3179 3179 3179 3179 3179 3180 3180 3180 3180 3180 3180 3180 3180 3180 3180 3180 3180 3180 3180 3180 3180 3180 3180 3180 3180 3180 3180 3180 3180 3180 3180 3180 3180 3180 3180 3180
3173 3173 3173 3173 3173 3172 3172 3172 3172 3172 3172 3172 3172 3173 3173 3173 3173 3173 3173 3173 3173 3173 3173 3173 3174 3174 3174 3174 3174 3174 3175 3175 3175 3175 3175 3175 3175 3175 3175 3175 3175 3176 3176 3176 3176 3176 3177 3177 3177 3177 3177 3177 3177 3178 3178 3178 3178 3178 3178 3178 3179 3179 3179 3179 3179 3179 3179 3179 3179 3179 3179 3179 3179 3179 3179 3179 3179 3179 3179 3179 3179 3179 3179 3179 3179 3179 3179 3179 3179 3179 3179 3179 3179 3179 3179 3179 3179 3179 3179 3179 3179 3179 3179
3173 3173 3172 3172 3172 3172 3172 3172 3172 3172 3172 3172 3172 3172 3172 3172 3172 3172 3172 3172 3172 3172 3173 3173 3173 3173 3173 3173 3174 3174 3174 3174 3174 3174 3174 3174 3175 3175 3175 3175 3175 3175 3175 3175 3176 3176 3176 3176 3176 3176 3176 3177 3177 3177 3177 3177 3177 3177 3178 3178 3178 3178 3178 3178 3178 3178 3178 3178 3178 3178 3178 3178 3178 3178 3178 3178 3178 3178 3178 3178 3178 3178 3178 3178 3178 3178 3178 3178 3178 3179 3179 3179 3179 3179 3178 3178 3178 3178 3178 3178 3178 3178 3178
3172 3172 3172 3172 3172 3171 3171 3171 3171 3171 3171 3171 3171 3171 3171 3171 3172 3172 3172 3172 3172 3172 3172 3172 3172 3172 3173 3173 3173 3173 3173 3174 3174 3174 3174 3174 3174 3174 3174 3174 3175 3175 3175 3175 3175 3175 3175 3175 3175 3176 3176 3176 3176 3176 3176 3177 3177 3177 3177 3177 3177 3177 3177 3178 3178 3178 3178 3178 3178 3178 3178 3177 3177 3177 3177 3177 3177 3177 3177 3177 3177 3177 3177 3177 3177 3177 3177 3177 3177 3177 3178 3178 3178 3178 3178 3178 3178 3177 3177 3177 3177 3177 3177
3172 3172 3172 3171 3171 3171 3171 3171 3171 3171 3171 3171 3171 3171 3171 3171 3171 3171 3171 3171 3171 3171 3171 3171 3172 3172 3172 3172 3172 3173 3173 3173 3173 3173 3174 3174 3174 3174 3174 3174 3174 3174 3174 3174 3175 3175 3175 3175 3175 3175 3175 3175 3175 3176 3176 3176 3176 3176 3176 3176 3177 3177 3177 3177 3177 3177 3177 3177 3177 3177 3177 3177 3177 3177 3177 3177 3177 3177 3177 3177 3177 3177 3176 3176 3176 3176 3176 3176 3176 3176 3176 3176 3176 3176 3176 3176 3176 3176 3176 3176 3176 3176 3176
3172 3171 3171 3171 3171 3171 3170 3170 3170 3170 3170 3170 3170 3170 3170 3170 3170 3170 3170 3170 3171 3171 3171 3171 3171 3171 3171 3171 3172 3172 3172 3172 3172 3173 3173 3173 3173 3173 3173 3173 3173 3174 3174 3174 3174 3174 3174 3174 3175 3175 3175 3175 3175 3175 3175 3175 3175 3175 3176 3176 3176 3176 3176 3176 3176 3176 3176 3176 3176 3176 3176 3176 3176 3176 3176 3176 3176 3176 3176 3176 3176 3176 3176 3175 3175 3175 3175 3175 3175 3175 3175 3175 3175 3175 3175 3175 3175 3175 3175 3175 3175 3175 3175
3171 3171 3171 3170 3170 3170 3170 3170 3170 3170 3170 3170 3170 3170 3170 3170 3170 3170 3170 3170 3170 3170 3170 3170 3170 3170 3170 3171 3171 3171 3171 3171 3171 3171 3172 3172 3172 3172 3173 3173 3173 3173 3173 3173 3173 3173 3174 3174 3174 3174 3174 3174 3174 3174 3175 3175 3175 3175 3175 3175 3175 3175 3175 3175 3175 3175 3175 3175 3175 3175 3175 3175 3175 3175 3175 3175 3175 3175 3175 3175 3175 3175 3175 3175 3175 3175 3175 3174 3174 3174 3174 3174 3174 3174 3174 3174 3174 3174 3174 3174 3174 3174 3174
3170 3170 3170 3170 3170 3170 3170 3170 3170 3170 3170 3170 3170 3170 3169 3169 3169 3169 3169 3169 3169 3169 3169 3170 3170 3170 3170 3170 3170 3170 3170 3170 3170 3170 3170 3171 3171 3171 3171 3172 3172 3172 3172 3172 3172 3173 3173 3173 3173 3173 3173 3173 3173 3174 3174 3174 3174 3174 3174 3174 3174 3174 3174 3174 3174 3174 3174 3175 3175 3175 3175 3175 3174 3174 3174 3174 3174 3174 3174 3174 3174 3174 3174 3174 3174 3174 3173 3173 3173 3173 3173 3173 3173 3173 3173 3173 3173 3173 3173 3173 3173 3173 3172
3170 3170 3170 3170 3170 3170 3170 3170 3169 3169 3169 3169 3169 3169 3169 3169 3169 3169 3169 3169 3169 3169 3169 3169 3169 3169 3169 3169 3169 3169 3169 3169 3170 3170 3170 3170 3170 3170 3170 3170 3171 3171 3171 3171 3171 3171 3172 3172 3172 3172 3172 3172 3173 3173 3173 3173 3173 3173 3173 3173 3173 3173 3173 3173 3173 3173 3173 3173 3173 3173 3173 3173 3173 3173 3173 3173 3173 3173 3173 3173 3173 3173 3173 3173 3172 3172 3172 3172 3172 3172 3172 3172 3172 3171 3171 3171 3171 3171 3171 3171 3171 3171 3171
3170 3169 3169 3169 3169 3169 3169 3169 3169 3169 3169 3169 3169 3169 3169 3168 3168 3168 3168 3168 3168 3168 3168 3168 3168 3168 3168 3168 3168 3168 3169 3169 3169 3169 3169 3169 3169 3169 3169 3169 3170 3170 3170 3170 3170 3170 3170 3171 3171 3171 3171 3171 3171 3172 3172 3172 3172 3172 3172 3172 3172 3172 3172 3172 3172 3172 3172 3172 3172 3172 3172 3172 3172 3172 3172 3172 3172 3172 3172 3172 3172 3171 3171 3171 3171 3171 3171 3171 3171 3171 3171 3170 3170 3170 3170 3170 3170 3170 3170 3170 3170 3170 3170
3170 3170 3169 3169 3169 3168 3168 3168 3168 3168 3168 3168 3168 3168 3168 3168 3168 3168 3168 3167 3167 3167 3167 3167 3167 3167 3167 3167 3167 3167 3167 3168 3168 3168 3168 3168 3168 3168 3168 3168 3168 3168 3169 3169 3169 3169 3169 3170 3170 3170 3170 3170 3170 3170 3170 3170 3170 3170 3170 3170 3171 3171 3171 3171 3171 3170 3170 3171 3171 3170 3170 3170 3170 3170 3170 3170 3170 3170 3170 3170 3170 3170 3170 3170 3170 3170 3170 3170 3170 3169 3169 3169 3169 3169 3169 3169 3169 3168 3168 3168 3168 3168 3168
3169 3169 3169 3169 3169 3168 3168 3168 3167 3167 3167 3167 3167 3167 3167 3167 3167 3167 3167 3167 3167 3166 3166 3166 3166 3166 3166 3166 3166 3166 3166 3166 3166 3166 3167 3167 3167 3167 3167 3166 3166 3167 3167 3167 3167 3168 3168 3168 3168 3169 3169 3169 3169 3169 3169 3169 3170 3170 3169 3169 3169 3169 3169 3169 3169 3169 3169 3169 3169 3169 3169 3169 3169 3169 3169 3169 3169 3169 3169 3169 3169 3168 3168 3168 3168 3168 3168 3168 3168 3168 3168 3168 3167 3167 3167 3167 3167 3167 3167 3167 3167 3166 3166
3167 3167 3168 3168 3168 3168 3168 3167 3167 3167 3166 3166 3166 3166 3166 3166 3166 3166 3166 3166 3166 3166 3165 3165 3165 3165 3165 3165 3165 3165 3165 3165 3165 3165 3165 3165 3166 3166 3166 3166 3165 3165 3165 3165 3166 3166 3166 3166 3167 3167 3167 3167 3167 3168 3168 3168 3168 3168 3168 3168 3168 3168 3168 3168 3168 3168 3168 3168 3168 3168 3168 3167 3167 3167 3167 3167 3167 3167 3167 3167 3167 3166 3166 3166 3166 3166 3166 3166 3166 3166 3166 3166 3166 3165 3165 3165 3165 3165 3165 3165 3165 3165 3165
3165 3165 3166 3166 3166 3167 3167 3167 3167 3166 3166 3166 3165 3165 3165 3165 3165 3165 3165 3165 3165 3165 3165 3165 3165 3164 3164 3164 3164 3164 3164 3164 3164 3164 3164 3164 3164 3164 3165 3165 3165 3165 3165 3164 3164 3164 3165 3165 3165 3165 3165 3165 3166 3166 3166 3166 3166 3166 3166 3166 3166 3166 3166 3166 3166 3166 3166 3166 3166 3166 3166 3166 3166 3166 3165 3165 3165 3165 3165 3165 3165 3165 3165 3164 3164 3164 3164 3164 3164 3164 3164 3164 3164 3164 3164 3163 3163 3163 3163 3163 3163 3163 3163
3164 3164 3164 3164 3164 3165 3165 3165 3165 3166 3166 3166 3165 3165 3165 3165 3164 3164 3164 3164 3164 3164 3164 3164 3164 3164 3164 3163 3163 3163 3163 3163 3162 3162 3162 3162 3162 3162 3163 3163 3163 3163 3163 3163 3163 3163 3163 3163 3163 3163 3164 3164 3164 3164 3164 3164 3164 3164 3164 3164 3164 3164 3164 3164 3164 3164 3164 3164 3164 3164 3164 3164 3164 3164 3164 3164 3164 3163 3163 3163 3163 3163 3162 3162 3162 3162 3162 3162 3162 3162 3161 3161 3161 3161 3161 3161 3161 3161 3161 3161 3161 3161 3161
3163 3163 3163 3163 3162 3162 3163 3163 3163 3163 3164 3164 3164 3164 3164 3164 3164 3163 3163 3162 3162 3162 3162 3163 3163 3163 3162 3162 3162 3162 3162 3161 3161 3161 3161 3161 3161 3160 3160 3161 3161 3161 3161 3162 3162 3162 3162 3162 3162 3162 3162 3162 3162 3162 3162 3162 3162 3162 3162 3162 3162 3162 3162 3162 3162 3162 3162 3162 3162 3162 3162 3162 3162 3162 3162 3161 3161 3161 3161 3161 3161 3160 3160 3160 3160 3160 3160 3160 3160 3160 3159 3159 3159 3159 3159 3159 3159 3159 3159 3159 3159 3159 3159
3162 3162 3162 3162 3161 3161 3161 3161 3161 3161 3161 3161 3161 3162 3162 3162 3162 3162 3162 3161 3161 3161 3161 3160 3160 3160 3160 3160 3160 3160 3160 3160 3160 3160 3160 3160 3159 3159 3159 3159 3159 3159 3159 3159 3160 3160 3160 3160 3160 3160 3160 3160 3160 3160 3160 3160 3160 3160 3160 3160 3160 3160 3160 3160 3160 3160 3160 3160 3160 3160 3160 3159 3159 3159 3159 3159 3159 3159 3159 3159 3158 3158 3158 3158 3158 3158 3157 3157 3157 3157 3157 3157 3157 3157 3157 3157 3156 3156 3156 3156 3156 3156 3156
3161 3161 3161 3161 3161 3160 3160 3160 3160 3160 3160 3160 3160 3160 3160 3160 3160 3160 3160 3160 3160 3159 3159 3159 3159 3159 3159 3159 3158 3158 3158 3158 3158 3158 3158 3158 3158 3158 3157 3157 3157 3157 3157 3157 3157 3157 3157 3157 3158 3158 3158 3158 3158 3158 3158 3158 3158 3158 3158 3158 3158 3158 3158 3157 3157 3157 3157 3157 3157 3157 3157 3157 3157 3156 3156 3156 3156 3156 3156 3156 3156 3156 3155 3155 3155 3155 3155 3155 3155 3155 3155 3155 3154 3154 3154 3154 3154 3154 3154 3154 3154 3154 3154
3161 3160 3160 3160 3160 3160 3159 3159 3159 3159 3159 3159 3159 3159 3159 3158 3158 3158 3158 3158 3158 3157 3157 3157 3157 3157 3157 3157 3157 3157 3156 3156 3156 3156 3156 3155 3155 3155 3155 3155 3155 3155 3155 3155 3155 3155 3155 3155 3155 3155 3155 3155 3156 3156 3156 3156 3156 3156 3155 3155 3155 3155 3155 3155 3155 3155 3155 3155 3154 3154 3154 3154 3154 3154 3154 3154 3153 3153 3153 3153 3153 3153 3153 3153 3152 3152 3152 3152 3152 3152 3152 3152 3152 3152 3151 3151 3151 3151 3151 3151 3151 3151 3151
3160 3160 3160 3159 3159 3159 3158 3158 3158 3158 3157 3157 3157 3157 3157 3157 3157 3157 3156 3156 3156 3156 3155 3155 3155 3155 3155 3155 3155 3155 3155 3155 3154 3154 3154 3154 3153 3153 3153 3153 3153 3153 3153 3153 3152 3152 3152 3152 3152 3152 3152 3152 3153 3153 3153 3153 3153 3153 3153 3153 3153 3153 3153 3152 3152 3152 3152 3151 3151 3151 3151 3151 3151 3151 3151 3150 3150 3150 3150 3150 3150 3150 3150 3150 3150 3150 3150 3150 3150 3149 3149 3149 3149 3149 3149 3149 3149 3149 3149 3149 3149 3149 3149
3159 3159 3158 3158 3158 3157 3157 3157 3157 3156 3156 3156 3156 3156 3156 3156 3155 3155 3155 3155 3154 3154 3154 3154 3153 3153 3153 3153 3152 3152 3152 3152 3152 3152 3152 3152 3151 3151 3151 3150 3150 3150 3150 3150 3150 3150 3150 3150 3150 3150 3149 3149 3149 3149 3150 3150 3150 3150 3150 3150 3150 3150 3150 3150 3150 3149 3149 3148 3148 3148 3148 3148 3148 3148 3147 3147 3147 3147 3147 3147 3147 3147 3147 3147 3147 3147 3146 3146 3146 3146 3146 3146 3146 3146 3146 3146 3146 3146 3146 3146 3146 3146 3146
3158 3157 3157 3156 3156 3156 3156 3155 3155 3155 3155 3155 3154 3154 3154 3154 3154 3153 3153 3153 3152 3152 3152 3152 3151 3151 3151 3150 3150 3150 3150 3150 3150 3150 3150 3150 3150 3149 3149 3149 3148 3148 3148 3147 3147 3147 3147 3147 3147 3147 3147 3147 3146 3146 3146 3146 3146 3146 3147 3147 3147 3147 3147 3147 3147 3146 3146 3146 3145 3145 3145 3144 3144 3144 3144 3145 3144 3144 3144 3144 3144 3144 3144 3144 3144 3144 3144 3144 3144 3144 3143 3143 3143 3143 3143 3143 3143 3143 3143 3143 3143 3143 3143
3156 3156 3155 3155 3155 3155 3154 3154 3154 3153 3153 3153 3152 3152 3152 3152 3152 3151 3151 3151 3151 3150 3150 3150 3150 3149 3149 3149 3148 3148 3147 3147 3147 3147 3147 3147 3147 3147 3147 3146 3146 3146 3145 3145 3145 3145 3145 3144 3144 3144 3144 3144 3144 3144 3144 3143 3143 3143 3143 3143 3143 3144 3144 3144 3144 3144 3144 3143 3143 3142 3142 3142 3141 3141 3141 3141 3141 3141 3141 3141 3141 3141 3140 3140 3140 3140 3140 3140 3140 3140 3140 3140 3140 3140 3140 3140 3140 3140 3140 3140 3140 3140 3140
3155 3154 3154 3154 3153 3153 3152 3152 3152 3151 3151 3151 3151 3150 3150 3150 3150 3150 3149 3149 3149 3149 3148 3148 3147 3147 3147 3147 3146 3146 3145 3145 3145 3145 3145 3145 3145 3144 3144 3144 3144 3143 3143 3143 3142 3142 3142 3142 3142 3142 3142 3141 3141 3141 3141 3141 3141 3141 3141 3140 3140 3140 3140 3141 3141 3141 3141 3141 3140 3140 3140 3139 3139 3139 3139 3139 3139 3139 3139 3138 3138 3138 3138 3138 3137 3137 3137 3137 3137 3137 3137 3137 3137 3137 3137 3137 3137 3137 3137 3137 3137 3137 3137
3153 3153 3152 3152 3151 3151 3151 3150 3150 3150 3150 3149 3149 3149 3148 3148 3148 3148 3147 3147 3147 3147 3147 3146 3145 3145 3145 3145 3144 3144 3144 3144 3143 3143 3143 3143 3142 3142 3142 3141 3141 3141 3141 3140 3140 3140 3140 3140 3140 3140 3139 3139 3139 3139 3139 3139 3139 3139 3138 3138 3138 3138 3138 3138 3138 3138 3138 3139 3138 3138 3138 3137 3137 3136 3136 3136 3135 3135 3135 3135 3135 3135 3135 3135 3135 3134 3134 3134 3134 3134 3134 3134 3134 3134 3134 3134 3134 3134 3134 3134 3134 3134 3134
3151 3151 3151 3150 3150 3150 3149 3149 3149 3148 3148 3148 3147 3147 3147 3146 3146 3146 3145 3145 3145 3145 3145 3145 3144 3143 3143 3142 3142 3142 3142 3142 3141 3141 3141 3141 3141 3140 3140 3140 3139 3139 3139 3139 3139 3139 3138 3138 3138 3138 3137 3137 3137 3137 3136 3136 3136 3136 3136 3136 3136 3136 3136 3135 3136 3136 3136 3136 3136 3136 3136 3135 3135 3134 3134 3133 3133 3133 3132 3132 3132 3132 3132 3132 3132 3131 3131 3131 3131 3131 3131 3130 3130 3130 3130 3130 3130 3130 3130 3130 3130 3130 3130
3150 3150 3150 3149 3149 3148 3148 3147 3147 3147 3146 3146 3145 3145 3145 3145 3144 3144 3144 3143 3143 3143 3143 3143 3142 3142 3141 3140 3140 3140 3140 3140 3140 3139 3139 3139 3139 3139 3138 3138 3137 3137 3137 3137 3137 3137 3136 3136 3136 3136 3135 3135 3135 3135 3134 3134 3134 3134 3134 3134 3134 3133 3133 3133 3133 3134 3134 3134 3134 3134 3134 3133 3133 3132 3131 3131 3130 3130 3130 3129 3129 3129 3129 3129 3129 3129 3129 3128 3128 3128 3128 3128 3127 3127 3127 3127 3127 3127 3127 3127 3127 3127 3127
3150 3149 3149 3148 3148 3147 3147 3146 3146 3145 3145 3144 3144 3144 3143 3143 3142 3142 3142 3141 3141 3141 3141 3140 3140 3140 3139 3139 3138 3138 3138 3138 3137 3137 3137 3137 3137 3136 3136 3136 3135 3135 3135 3135 3135 3135 3134 3135 3135 3134 3134 3134 3133 3133 3132 3132 3131 3131 3131 3131 3131 3131 3131 3131 3131 3131 3131 3131 3131 3131 3131 3131 3130 3130 3129 3129 3128 3127 3127 3126 3126 3126 3126 3125 3125 3125 3125 3125 3125 3125 3125 3125 3124 3124 3124 3124 3124 3124 3123 3123 3123 3123 3123
3149 3148 3148 3147 3147 3146 3146 3145 3145 3144 3144 3143 3143 3142 3142 3141 3141 3140 3140 3140 3139 3139 3139 3138 3138 3138 3137 3137 3136 3136 3136 3135 3135 3135 3135 3135 3134 3134 3134 3134 3133 3133 3133 3133 3132 3132 3132 3132 3132 3132 3132 3131 3131 3131 3130 3130 3129 3129 3129 3128 3128 3128 3128 3128 3128 3129 3129 3129 3129 3129 3128 3128 3128 3127 3127 3126 3125 3125 3124 3124 3123 3123 3123 3122 3122 3122 3122 3122 3122 3122 3122 3121 3121 3121 3121 3120 3120 3120 3120 3120 3120 3120 3120
3148 3147 3147 3146 3146 3145 3145 3144 3144 3143 3143 3142 3141 3141 3140 3140 3139 3139 3138 3138 3137 3137 3136 3136 3136 3135 3135 3135 3135 3134 3134 3133 3133 3132 3132 3132 3131 3131 3131 3131 3130 3130 3130 3130 3130 3130 3130 3130 3130 3129 3129 3129 3129 3128 3128 3128 3127 3127 3126 3126 3126 3125 3125 3125 3125 3126 3126 3126 3126 3126 3125 3125 3125 3124 3124 3123 3123 3122 3122 3121 3121 3120 3120 3120 3119 3119 3119 3119 3118 3118 3118 3118 3118 3118 3118 3117 3117 3117 3117 3117 3117 3117 3117
3146 3146 3145 3145 3145 3144 3144 3143 3143 3142 3141 3141 3140 3140 3139 3139 3138 3137 3137 3136 3136 3135 3135 3134 3134 3134 3133 3133 3132 3132 3131 3131 3130 3130 3130 3129 3129 3129 3128 3128 3128 3127 3127 3127 3127 3127 3127 3127 3127 3126 3126 3126 3125 3125 3125 3125 3125 3124 3124 3123 3123 3123 3123 3123 3123 3123 3123 3123 3123 3123 3123 3122 3122 3121 3121 3120 3120 3120 3119 3119 3118 3118 3117 3117 3116 3116 3115 3115 3115 3115 3115 3114 3114 3114 3114 3114 3114 3114 3114 3113 3113 3113 3113
3145 3145 3145 3144 3144 3143 3142 3142 3141 3141 3140 3140 3140 3139 3138 3137 3137 3136 3135 3135 3134 3134 3133 3132 3132 3132 3131 3131 3130 3130 3129 3129 3128 3127 3127 3126 3126 3126 3125 3125 3125 3125 3124 3124 3124 3124 3124 3124 3124 3123 3123 3123 3122 3122 3122 3122 3121 3121 3121 3120 3120 3120 3120 3120 3120 3120 3120 3119 3119 3119 3119 3119 3119 3119 3118 3117 3117 3117 3116 3116 3115 3115 3114 3114 3113 3113 3112 3112 3111 3111 3111 3111 3110 3110 3110 3110 3110 3110 3110 3110 3110 3110 3110
3145 3144 3144 3143 3143 3142 3141 3141 3140 3140 3140 3139 3138 3138 3137 3136 3135 3135 3134 3133 3133 3132 3131 3131 3130 3130 3129 3129 3128 3128 3127 3126 3126 3125 3125 3124 3124 3123 3123 3123 3122 3122 3121 3121 3121 3121 3121 3120 3120 3120 3120 3120 3119 3119 3119 3119 3118 3118 3118 3117 3117 3117 3117 3117 3117 3116 3116 3116 3115 3115 3116 3116 3115 3115 3115 3114 3114 3114 3113 3113 3112 3112 3111 3111 3110 3110 3109 3109 3108 3108 3108 3107 3107 3107 3107 3107 3106 3106 3106 3106 3106 3106 3106
3144 3143 3143 3142 3142 3141 3140 3140 3139 3139 3138 3138 3137 3136 3136 3135 3134 3133 3132 3132 3131 3131 3130 3129 3128 3128 3127 3127 3126 3125 3125 3124 3124 3123 3122 3122 3121 3121 3120 3120 3120 3120 3119 3118 3118 3118 3118 3117 3117 3117 3117 3116 3116 3116 3116 3115 3115 3115 3115 3115 3115 3114 3114 3114 3113 3113 3112 3112 3112 3112 3112 3112 3112 3111 3111 3111 3111 3110 3110 3110 3109 3109 3108 3108 3107 3107 3106 3106 3105 3105 3105 3104 3104 3104 3103 3103 3103 3103 3103 3103 3102 3102 3102
3143 3142 3142 3141 3141 3140 3140 3139 3138 3137 3137 3136 3136 3135 3135 3134 3133 3132 3131 3130 3130 3129 3128 3128 3127 3126 3125 3125 3124 3124 3123 3122 3121 3121 3120 3119 3119 3119 3118 3118 3117 3117 3116 3116 3115 3115 3115 3114 3114 3114 3113 3113 3113 3113 3113 3112 3112 3112 3111 3111 3111 3111 3111 3110 3110 3110 3109 3109 3108 3108 3108 3108 3108 3108 3107 3107 3107 3107 3106 3106 3106 3105 3105 3105 3104 3104 3103 3103 3102 3102 3101 3101 3100 3100 3100 3100 3100 3099 3099 3099 3099 3099 3099
3142 3142 3141 3140 3140 3139 3139 3138 3137 3136 3136 3135 3135 3134 3133 3132 3131 3130 3130 3129 3128 3127 3127 3126 3125 3124 3123 3123 3122 3122 3121 3120 3119 3119 3118 3117 3116 3116 3116 3115 3115 3114 3114 3113 3113 3113 3112 3111 3111 3110 3110 3110 3109 3109 3109 3109 3109 3109 3109 3109 3109 3108 3108 3108 3107 3106 3106 3105 3105 3105 3105 3104 3104 3104 3104 3104 3103 3103 3103 3103 3102 3102 3101 3101 3101 3100 3100 3099 3099 3099 3098 3098 3097 3097 3097 3096 3096 3096 3096 3095 3095 3095 3095
3141 3140 3140 3139 3139 3138 3137 3136 3136 3135 3135 3134 3133 3132 3132 3131 3130 3129 3128 3127 3126 3125 3125 3124 3123 3122 3121 3121 3120 3120 3119 3118 3117 3116 3115 3115 3114 3114 3113 3113 3112 3112 3111 3111 3110 3110 3110 3109 3108 3107 3107 3106 3106 3105 3105 3105 3105 3105 3105 3105 3105 3105 3105 3105 3104 3103 3103 3102 3102 3101 3101 3101 3100 3100 3100 3100 3100 3100 3099 3099 3099 3098 3098 3097 3097 3097 3096 3096 3095 3095 3095 3095 3094 3094 3093 3093 3093 3092 3092 3092 3092 3092 3092
3140 3139 3139 3138 3137 3137 3136 3135 3134 3134 3133 3132 3132 3131 3130 3129 3128 3127 3126 3126 3125 3124 3123 3122 3121 3120 3120 3119 3118 3117 3117 3116 3115 3114 3113 3113 3112 3111 3111 3110 3110 3109 3109 3108 3108 3108 3107 3106 3105 3105 3104 3104 3103 3102 3101 3101 3102 3102 3102 3102 3102 3102 3101 3101 3101 3100 3100 3099 3099 3098 3098 3097 3097 3097 3096 3096 3096 3096 3095 3095 3095 3095 3094 3094 3094 3093 3093 3092 3092 3092 3091 3091 3090 3090 3090 3090 3089 3089 3089 3089 3089 3088 3088
3138 3138 3137 3136 3136 3135 3134 3134 3133 3132 3131 3131 3130 3129 3129 3128 3126 3125 3125 3124 3123 3122 3121 3120 3119 3118 3117 3117 3116 3115 3115 3114 3113 3112 3111 3110 3110 3109 3108 3107 3107 3106 3106 3106 3105 3105 3104 3104 3103 3102 3102 3101 3100 3099 3098 3098 3098 3099 3099 3099 3099 3098 3098 3098 3097 3097 3096 3095 3095 3095 3095 3094 3093 3093 3092 3092 3092 3092 3092 3091 3091 3091 3091 3090 3090 3090 3089 3089 3088 3088 3088 3087 3087 3086 3086 3086 3086 3085 3085 3085 3085 3085 3085
3137 3136 3135 3135 3134 3133 3133 3132 3131 3130 3130 3129 3128 3127 3127 3125 3125 3124 3122 3121 3120 3120 3119 3118 3117 3116 3115 3114 3114 3113 3112 3111 3110 3109 3108 3107 3107 3106 3106 3105 3104 3103 3104 3103 3103 3102 3101 3101 3100 3100 3099 3098 3097 3096 3095 3095 3095 3095 3095 3095 3095 3095 3095 3094 3094 3093 3093 3092 3092 3091 3091 3090 3090 3089 3089 3088 3088 3088 3088 3087 3087 3087 3087 3086 3086 3085 3085 3085 3085 3084 3084 3084 3083 3083 3083 3082 3082 3082 3082 3082 3081 3081 3081
3135 3135 3134 3133 3132 3132 3131 3130 3129 3129 3128 3127 3126 3125 3125 3124 3123 3121 3120 3119 3118 3117 3116 3115 3115 3113 3112 3112 3111 3110 3110 3109 3107 3106 3105 3105 3104 3103 3102 3102 3101 3100 3100 3100 3099 3098 3098 3097 3097 3096 3095 3094 3094 3093 3093 3092 3092 3092 3091 3091 3091 3091 3091 3091 3090 3090 3089 3089 3089 3088 3088 3087 3086 3086 3085 3085 3085 3084 3084 3083 3083 3083 3082 3082 3082 3081 3081 3081 3080 3080 3080 3080 3080 3079 3079 3079 3078 3078 3078 3078 3078 3077 3077
3134 3133 3132 3131 3131 3130 3129 3128 3128 3127 3126 3125 3124 3123 3122 3121 3120 3120 3118 3117 3116 3115 3114 3113 3112 3111 3110 3109 3109 3108 3107 3106 3105 3104 3103 3102 3101 3100 3098 3098 3097 3097 3097 3097 3096 3095 3095 3094 3093 3092 3091 3090 3090 3090 3090 3089 3089 3088 3088 3088 3087 3087 3087 3087 3087 3086 3085 3085 3085 3085 3085 3084 3083 3082 3082 3081 3081 3080 3080 3079 3079 3078 3078 3078 3077 3077 3077 3077 3076 3076 3076 3075 3075 3075 3075 3075 3074 3074 3074 3074 3073 3073 3073
3132 3131 3131 3130 3129 3128 3127 3126 3125 3125 3124 3123 3122 3121 3120 3119 3118 3117 3116 3115 3114 3113 3111 3110 3109 3109 3108 3107 3106 3105 3105 3104 3102 3101 3100 3099 3098 3097 3095 3094 3093 3093 3093 3092 3092 3093 3093 3091 3089 3088 3087 3087 3086 3086 3085 3085 3085 3084 3084 3084 3083 3083 3083 3083 3083 3082 3082 3081 3081 3081 3081 3080 3080 3079 3078 3078 3077 3077 3076 3075 3075 3074 3074 3073 3073 3073 3073 3072 3072 3072 3072 3071 3071 3071 3071 3070 3070 3070 3070 3069 3069 3069 3069
3131 3130 3129 3128 3127 3126 3125 3124 3123 3122 3121 3120 3120 3119 3118 3117 3116 3115 3114 3113 3111 3110 3109 3108 3107 3106 3105 3105 3104 3103 3102 3101 3100 3099 3098 3097 3096 3095 3093 3092 3090 3090 3089 3087 3087 3088 3090 3088 3086 3084 3083 3083 3082 3082 3081 3081 3080 3080 3080 3079 3079 3079 3079 3079 3078 3078 3077 3077 3077 3077 3076 3076 3076 3075 3075 3074 3074 3073 3073 3072 3071 3070 3070 3069 3069 3068 3068 3068 3068 3068 3067 3067 3067 3067 3066 3066 3066 3066 3065 3065 3065 3065 3065
3129 3128 3127 3126 3125 3124 3123 3122 3121 3120 3119 3118 3117 3116 3116 3115 3114 3113 3112 3110 3109 3108 3107 3105 3105 3104 3103 3102 3101 3101 3100 3099 3098 3096 3095 3094 3093 3092 3091 3090 3089 3087 3086 3085 3083 3083 3084 3084 3082 3081 3080 3079 3078 3077 3077 3076 3076 3075 3075 3074 3074 3074 3074 3074 3073 3073 3073 3073 3073 3072 3072 3072 3071 3071 3071 3070 3070 3070 3069 3068 3068 3067 3066 3065 3065 3064 3064 3064 3063 3063 3063 3062 3062 3062 3062 3061 3061 3061 3061 3061 3060 3060 3060
3127 3126 3125 3124 3123 3122 3121 3120 3119 3118 3117 3116 3115 3114 3113 3112 3111 3110 3110 3108 3107 3105 3104 3103 3102 3101 3100 3099 3099 3098 3098 3097 3096 3094 3093 3091 3090 3089 3088 3087 3086 3085 3083 3082 3080 3079 3079 3079 3078 3077 3077 3077 3075 3073 3073 3072 3071 3070 3070 3069 3069 3069 3069 3068 3068 3068 3068 3068 3068 3068 3067 3067 3067 3066 3066 3066 3066 3066 3065 3065 3064 3063 3062 3062 3061 3060 3060 3060 3059 3059 3058 3058 3058 3057 3057 3057 3057 3056 3056 3056 3056 3055 3055
3126 3125 3123 3122 3121 3120 3119 3118 3117 3116 3115 3114 3113 3112 3111 3110 3109 3108 3107 3106 3105 3103 3102 3100 3099 3098 3097 3096 3095 3095 3095 3094 3094 3092 3090 3089 3087 3086 3085 3085 3084 3082 3080 3079 3078 3077 3075 3074 3073 3073 3074 3075 3073 3071 3070 3069 3068 3067 3066 3065 3064 3063 3063 3063 3062 3062 3062 3063 3063 3063 3062 3062 3062 3061 3061 3061 3061 3061 3061 3061 3060 3060 3059 3058 3057 3057 3056 3056 3055 3055 3054 3054 3054 3053 3053 3052 3052 3052 3051 3051 3051 3051 3050
3124 3123 3122 3120 3119 3118 3117 3116 3115 3114 3113 3112 3110 3110 3109 3108 3107 3106 3105 3104 3102 3101 3100 3098 3097 3096 3094 3093 3092 3091 3091 3091 3091 3090 3088 3086 3084 3083 3082 3081 3081 3080 3079 3077 3075 3074 3073 3072 3070 3068 3067 3070 3070 3068 3068 3067 3066 3065 3064 3062 3061 3060 3058 3057 3057 3056 3056 3057 3057 3057 3057 3057 3057 3056 3056 3056 3056 3056 3056 3056 3056 3055 3055 3054 3054 3053 3053 3052 3051 3051 3050 3050 3050 3049 3049 3049 3048 3047 3047 3046 3046 3046 3046
3122 3121 3120 3119 3117 3116 3115 3114 3113 3112 3111 3110 3109 3107 3107 3105 3105 3103 3102 3101 3100 3099 3097 3096 3095 3094 3092 3091 3089 3088 3088 3088 3088 3087 3085 3083 3082 3080 3079 3078 3077 3076 3075 3074 3073 3071 3070 3069 3067 3065 3063 3063 3064 3065 3065 3063 3063 3063 3062 3060 3059 3057 3056 3054 3053 3052 3051 3051 3051 3051 3051 3051 3051 3051 3051 3051 3051 3051 3051 3051 3051 3051 3050 3050 3050 3050 3049 3048 3048 3047 3046 3046 3046 3045 3045 3045 3044 3044 3043 3042 3042 3041 3041
3121 3120 3118 3117 3116 3115 3113 3112 3111 3110 3108 3107 3106 3105 3104 3103 3102 3101 3100 3099 3098 3096 3095 3094 3092 3091 3090 3089 3087 3086 3085 3085 3085 3084 3082 3081 3080 3078 3077 3075 3073 3072 3072 3071 3070 3069 3067 3065 3064 3062 3060 3057 3057 3059 3061 3060 3059 3058 3058 3057 3056 3055 3054 3052 3051 3050 3049 3048 3047 3046 3045 3045 3045 3045 3045 3045 3045 3045 3045 3045 3046 3046 3046 3046 3046 3045 3045 3045 3044 3044 3043 3042 3042 3042 3041 3041 3040 3040 3039 3038 3038 3037 3037
3119 3118 3117 3115 3114 3113 3112 3110 3109 3108 3106 3105 3104 3103 3102 3101 3100 3099 3097 3096 3095 3094 3092 3091 3090 3089 3087 3086 3085 3083 3082 3082 3081 3080 3080 3078 3077 3076 3075 3072 3070 3069 3068 3067 3067 3065 3064 3063 3061 3060 3058 3055 3052 3052 3053 3055 3056 3055 3054 3053 3053 3051 3050 3049 3048 3047 3046 3045 3044 3042 3041 3040 3040 3040 3039 3039 3039 3039 3039 3040 3040 3040 3041 3041 3041 3041 3041 3041 3040 3040 3039 3039 3038 3038 3037 3037 3036 3036 3035 3035 3034 3033 3033
3118 3116 3115 3114 3113 3111 3110 3109 3107 3106 3105 3103 3102 3100 3099 3098 3097 3096 3095 3094 3092 3091 3090 3088 3087 3086 3085 3084 3082 3081 3080 3079 3078 3078 3077 3075 3074 3073 3072 3070 3068 3066 3065 3064 3063 3062 3061 3060 3059 3057 3055 3053 3050 3048 3046 3048 3050 3050 3049 3049 3048 3047 3045 3045 3045 3044 3042 3041 3040 3039 3038 3037 3036 3035 3035 3034 3034 3033 3034 3034 3034 3035 3035 3035 3036 3036 3036 3036 3036 3035 3035 3035 3035 3034 3034 3033 3032 3032 3031 3030 3030 3029 3029